Content
SEND FEEDBACK

Daily
Averages
Monthly
Summary
United States of America

ST. JOSEPH, MISSOURI


Home > North America > United States > Missouri
Elevation: 810 feet     Latitude: 39 46N     Longitude: 094 55W

WEATHER
 
SELECT A DAY
Number of Records: 196,225;   Date Range: 1/1/95 - 10/20/14
 
SHARE

PRINT THIS DATA

[ ← Previous Day ]
WEATHER ALMANAC - JANUARY 7, 2013
[ Next Day → ]
[ °C ]   °F
Weather ElementAverageHighLow
Temperature35.8 °F46 °F (1:53 pm)27 °F (4:53 am)
Dewpoint23.4 °F27 °F (5:53 pm)19 °F (2:53 am)
Humidity61.7 %72 % (4:53 am)46 % (11:53 am)
Barometer30.14 in30.26 in (1:53 am)30.04 in (10:53 pm)
Wind Speed10.2 mph20.7 mph (9:53 am)
Wind Gust29.9 mph (9:53 am)
Weather ElementAverage
Visibility10 mi
Wind DirectionSSW (188.1 °)

Weather ElementTotal
Precipitation---
Heating Degree Days28.5 (Base 65)
Averaged from 21 records on January 7, 2013
WEATHER CONDITIONS BREAKOUT
WIND DIRECTION BREAKOUT
WEATHER BY HOUR - JANUARY 7, 2013
[ °C ]   °F
Local TimeTemperatureDewpointHumidityBarometerVisibilityWind DirectionWind SpeedGust SpeedPrecipitationEventsConditions
1:53 AM30.0 °F19.9 °F66 %30.26 in10.0 miSouth (170°)9.2 mphClear
2:53 AM28.0 °F19.0 °F69 %30.25 in10.0 miSouth (170°)6.9 mphClear
3:53 AM28.0 °F19.0 °F69 %30.24 in10.0 miSouth (190°)8.1 mphClear
4:53 AM27.0 °F19.0 °F72 %30.22 in10.0 miSouth (180°)8.1 mphClear
5:53 AM28.0 °F19.9 °F72 %30.22 in10.0 miSSW (200°)9.2 mphClear
6:53 AM28.9 °F19.9 °F69 %30.22 in10.0 miSSW (200°)8.1 mphClear
7:53 AM28.9 °F19.9 °F69 %30.20 in10.0 miSouth (180°)11.5 mphClear
8:53 AM35.1 °F21.0 °F57 %30.19 in10.0 miSouth (190°)16.1 mphClear
9:53 AM39.0 °F21.9 °F50 %30.17 in10.0 miSouth (190°)20.7 mph29.9 mphClear
10:53 AM41.0 °F24.1 °F51 %30.18 in10.0 miSSW (200°)11.5 mph21.9 mphClear
11:53 AM45.0 °F25.0 °F46 %30.14 in10.0 miSW (220°)10.4 mphClear
1:53 PM46.0 °F26.1 °F46 %30.07 in10.0 miSouth (190°)12.7 mph21.9 mphClear
2:53 PM46.0 °F26.1 °F46 %30.06 in10.0 miSouth (190°)15.0 mph24.2 mphClear
3:53 PM46.0 °F26.1 °F46 %30.05 in10.0 miSSW (200°)15.0 mphClear
5:53 PM39.0 °F27.0 °F62 %30.07 in10.0 miSouth (180°)8.1 mphClear
6:53 PM37.0 °F26.1 °F65 %30.06 in10.0 miSouth (180°)5.8 mphClear
7:53 PM37.0 °F26.1 °F65 %30.06 in10.0 miSouth (190°)5.8 mphClear
8:53 PM35.1 °F26.1 °F70 %30.06 in10.0 miSouth (180°)6.9 mphClear
9:53 PM37.0 °F26.1 °F65 %30.05 in10.0 miSouth (190°)9.2 mphClear
10:53 PM35.1 °F26.1 °F70 %30.04 in10.0 miSouth (180°)9.2 mphClear
11:53 PM35.1 °F26.1 °F70 %30.04 in10.0 miSouth (180°)5.8 mphClear
Hourly data recorded from KSTJ, located miles away from St. Joseph, Missouri







STORIES FROM OUR PARTNERS